Regional Weather Roundup
Issued by NWS

Home | Current Version | Previous Version | Graphics & Text | Print | Product List | Glossary On
Versions: 1 2 3 4 5 6 7 8 9 10 11 12 13 14 15 16 17 18 19 20 21 22 23 24 25 26 27 28 29 30 31 32 33 34 35 36 37 38 39 40 41 42 43 44 45 46 47 48 49 50
706
ASUS43 KLMK 040810
RWRKY
KENTUCKY REGIONAL WEATHER ROUNDUP
NATIONAL WEATHER SERVICE LOUISVILLE KY
400 AM EDT WED MAY 04 2016

NOTE "FAIR" INDICATES FEW OR NO CLOUDS BELOW 12,000 FEET
WITH NO SIGNIFICANT WEATHER AND/OR OBSTRUCTIONS TO VISIBILITY.

KYZ001>023-026-027-061>063-070>075-040900-
WESTERN AND SOUTH CENTRAL KENTUCKY

CITY           SKY/WX    TMP DP  RH WIND       PRES   REMARKS
PADUCAH        CLEAR     49  44  83 SW6       29.87F
HENDERSON      CLEAR     52  43  71 SW8       29.83F
OWENSBORO      PTCLDY    49  46  89 SW5       29.84F
HOPKINSVILLE   PTCLDY    48  46  93 SW5       29.87F
BOWLING GREEN  CLOUDY    50  45  83 SW5       29.86F
GLASGOW        CLEAR     46  46 100 CALM      29.85F FOG
$$

KYZ024-025-028>034-038-045-046-053-040900-
NORTH CENTRAL KENTUCKY

CITY           SKY/WX    TMP DP  RH WIND       PRES   REMARKS
LOUISVILLE/SDF MOCLDY    54  44  69 W5        29.80F
LOUISVILLE/LOU PTCLDY    50  46  86 CALM      29.81F
FORT KNOX      NOT AVBL
$$

KYZ035>037-039>044-047>052-055>060-089>105-040900-
NORTHEAST KENTUCKY

CITY           SKY/WX    TMP DP  RH WIND       PRES   REMARKS
LEXINGTON      CLEAR     49  45  86 SW6       29.81F
COVINGTON      PTCLDY    47  45  93 SW3       29.77F
FRANKFORT      CLEAR     48  44  86 SW3       29.79F
$$

KYZ054-064>069-076>088-106>120-040900-
SOUTHEAST KENTUCKY

CITY           SKY/WX    TMP DP  RH WIND       PRES   REMARKS
JACKSON        CLOUDY    51  48  89 CALM      29.80F
LONDON         CLOUDY    53  46  77 W5        29.82F
SOMERSET       CLOUDY    50  45  81 CALM      29.85F
MIDDLESBORO    CLOUDY    53  48  83 CALM      29.83F
MONTICELLO     CLOUDY    50  48  93 NE6       29.86F
$$





USA.gov is the U.S. government's official web portal to all federal, state and local government web resources and services.